STARLINK-36300

Last updated on Sun Apr 12 2026 00:02:08 GMT+0000 (Coordinated Universal Time)

1 68303U 26057K 26101.34405435 .00360208 00000+0 17922-2 0 9999 2 68303 97.2842 225.3877 0002142 131.0147 229.1307 15.80968622 3424
UTC large
Height (km)
Speed (km/s)
/
Latitude / Longitude
Inclination (degrees)
Orbital Period (minutes)
Azimuth
Elevation
Range (km)
Doppler Factor

Next 0 passes for location: London (51.5072 / 0.1276)

Sorry there are no passes over London.
STARLINK-36300